Lid_Strength_Index
2 2 1 1 1 0 0 -0 -0 -1 -0 0 0 0 1 -0 -1 -1 -2 -1 -1 -1 -1 -0 -1 -1 -0 -0 -1 -0 -0 0 -0 1 1 0 -0 -0 -0 -0 -0 -0 -1
3 2 1 1 1 1 0 0 -0 -0 -0 -0 -0 -0 -0 -1 -0 -1 -1 -1 -1 -1 -1 -1 0 -1 0 -0 -0 -0 1 0 -0 2 2 3 2 0 -0 -0 -0 -0 -1
3 2 2 1 1 1 1 0 -0 -0 -1 -1 -0 -0 -0 -0 0 -0 -0 -1 -1 -1 -1 -1 -1 -1 -0 0 -1 -0 0 2 0 -0 2 4 4 3 1 0 -0 -1 -0
3 2 2 2 1 1 0 0 -0 -0 -0 -1 -1 -1 1 1 0 -0 -0 -1 -1 -1 -1 -1 -1 -1 -0 -1 -0 -0 0 0 1 0 0 0 1 4 4 1 0 -0 -1
3 3 2 1 1 1 1 0 0 0 -0 -0 -0 0 1 0 -0 -0 -1 -1 -1 -1 -1 -1 -1 -1 -0 -1 -1 -0 -0 -0 1 1 1 1 1 1 3 4 2 0 0
3 2 2 1 1 1 1 0 0 0 -0 -0 -0 -0 -0 0 1 0 1 0 -0 -0 -1 -1 -1 -1 -1 -1 -1 -1 -0 0 0 1 1 1 2 3 2 3 2 2 1
3 3 2 2 1 1 1 1 0 1 0 0 -0 -0 -0 -0 0 0 0 0 0 0 -1 -1 -1 -0 -1 -1 -1 -1 -0 -0 0 0 1 0 1 1 2 2 3 2 1
3 3 2 2 1 1 1 1 1 1 0 0 0 -0 -1 0 0 -0 0 0 0 -0 -2 -1 -1 -1 -1 -1 -1 -0 -0 -0 0 0 0 1 0 0 1 1 3 3 2
3 4 3 2 2 1 1 1 1 1 0 0 0 -0 -0 -0 -0 -1 -1 -0 -1 -0 -1 -1 -1 -1 -1 -1 -1 0 -0 -0 -0 -0 -0 0 0 0 0 0 2 2 4
3 3 3 2 2 1 1 1 1 1 0 0 0 0 -0 -0 -0 -1 -0 -0 -1 -1 -1 -1 -1 -1 -1 -1 -1 -0 -1 -0 0 0 0 0 0 0 1 0 2 0 2
4 3 3 2 2 1 1 1 1 1 1 0 0 0 0 -0 -0 -0 -0 -1 -1 -1 -1 -0 -0 -0 -1 -1 -0 -0 -0 0 0 -0 0 0 -0 0 2 1 2 1 1
3 3 3 2 2 2 1 2 1 1 0 0 -0 -0 -0 -0 -0 -0 -0 -1 -0 -1 -1 -0 -0 -0 -0 -0 -0 0 0 0 1 1 0 1 0 0 1 2 0 0 -0
4 3 3 2 2 2 2 2 2 1 0 0 0 0 0 0 -0 -0 -0 -1 -0 -0 -0 -0 0 -0 0 -0 -0 -0 0 0 0 1 1 1 0 1 2 2 1 0 0
4 3 3 3 2 2 2 2 2 1 1 1 0 0 0 0 0 -0 -0 -0 -0 -0 -0 -0 -0 0 0 0 -0 0 0 0 0 1 0 0 0 1 2 2 0 0 1
4 4 4 4 3 3 2 2 2 1 1 1 1 1 0 0 -0 0 0 -0 -0 -0 -0 0 -0 -0 0 0 0 0 0 0 0 0 0 0 1 4 3 3 1 0 1
4 4 4 4 3 3 2 2 1 2 1 1 2 1 1 1 0 0 0 0 0 0 0 0 0 0 0 5 5 1 0 0 0 2 0 1 4 5 5 5 4 2 1
4 4 4 3 3 2 2 2 1 1 2 2 2 2 1 1 1 1 1 1 0 1 1 0 0 1 0 5 6 5 0 0 1 1 1 1 3 4 4 6 4 5 3
4 3 3 3 2 2 1 1 1 1 1 1 2 1 1 1 1 1 1 1 1 1 1 1 0 0 1 7 6 5 0 0 0 0 1 1 3 3 4 3 2 3 3
3 3 2 2 2 2 2 1 1 1 1 2 2 1 1 1 1 1 1 1 1 1 1 0 1 1 0 6 5 3 1 1 1 1 1 0 1 6 6 3 2 2 3
3 3 2 2 2 1 1 1 2 2 2 1 1 1 1 1 1 1 1 1 1 1 0 1 0 3 0 6 7 5 1 1 1 0 0 3 1 6 7 3 2 3 2
3 2 2 2 1 1 1 1 1 2 1 0 0 0 0 1 1 1 1 1 1 1 1 1 0 0 1 0 9 8 1 1 2 1 1 2 7 8 9 8 1 1 2
3 2 2 2 1 1 1 1 2 1 0 0 0 0 0 1 1 1 1 1 1 1 1 1 1 1 -0 5 8 8 7 3 1 1 1 3 8 10 10 8 8 6 4
2 2 2 2 1 1 1 1 1 0 0 0 1 1 0 0 0 1 1 1 1 2 2 2 2 1 1 0 7 9 8 7 2 0 2 7 11 11 9 9 8 7 3
2 2 2 2 2 1 1 1 0 0 0 1 1 0 1 1 0 1 1 1 2 2 2 2 3 2 1 1 2 4 3 7 4 5 5 7 8 8 6 7 6 3 2
2 2 2 2 2 1 1 0 0 -0 1 1 1 1 1 1 1 1 1 1 1 4 3 2 4 3 2 6 11 10 3 3 4 5 5 7 7 7 5 5 5 3 2
2 2 2 2 1 1 1 0 -0 0 1 1 1 1 1 1 1 1 1 6 7 10 13 14 11 4 9 13 13 12 13 12 11 5 6 7 7 6 5 5 5 3 2